South Lake Tahoe, CA

6:16 PM PST on February 24, 2017 (GMT -0800)
Lake Tahoe

Weather History for KTVL - April, 2012

Change the Weather History Date:

Thursday, April 26, 2012

  Actual Average Record
Temperature  
Mean Temperature 37 °F 43 °F  
Max Temperature 46 °F 57 °F 71 °F (1992)
Min Temperature 28 °F 28 °F 7 °F (1975)
Degree Days  
Heating Degree Days 28 22  
Month to date heating degree days 596 652  
Since 1 July heating degree days 6133 6804  
Cooling Degree Days 0 0  
Month to date cooling degree days 0 0  
Year to date cooling degree days 0 0  
Moisture  
Dew Point 33 °F    
Average Humidity 73    
Maximum Humidity 92    
Minimum Humidity 54    
Precipitation  
Precipitation 0.30 in - 1.13 in (1952)
Month to date precipitation 0.93  
Year to date precipitation 9.76  
Sea Level Pressure  
Sea Level Pressure 29.82 in    
Wind  
Wind Speed 12 mph (SSW)    
Max Wind Speed 33 mph    
Max Gust Speed 60 mph    
Visibility 7 miles    
Events Rain , Snow    
T = Trace of Precipitation, MM = Missing Value Source: NWS Daily Summary

Daily Weather History Graph

Daily Weather History Graph

Search for Another Location

Airport or City:

Trip Planner

Search our weather history database for the weather conditions in past years. The results will help you decide how hot, cold, wet, or windy it might be!

Date:

Astronomy

Apr. 26, 2012 Rise Set
Actual Time 6:07 AM PDT 7:48 PM PDT
Civil Twilight 5:39 AM PDT 8:16 PM PDT
Nautical Twilight 5:05 AM PDT 8:51 PM PDT
Astronomical Twilight 4:28 AM PDT 9:27 PM PDT
Moon 9:53 AM PDT (4/26) No Moon Set
Length of Visible Light 14h 37m
Length of Day
13h 40m
Waxing Crescent, 25% of the Moon is Illuminated
Apr 26
Waxing Crescent
Apr 29
First Quarter
May 5
Full
May 12
Last Quarter
May 20
New

Hourly Weather History & Observations

Time (PDT) Temp. Windchill Dew Point Humidity Pressure Visibility Wind Dir Wind Speed Gust Speed Precip Events Conditions
12:53 AM 46.9 °F - 41.0 °F 80% 29.71 in 9.0 mi SSW 10.4 mph - 0.00 in Rain Light Rain
1:37 AM 44.6 °F 43.1 °F 41.0 °F 87% 29.83 in 10.0 mi SW 3.5 mph - 0.02 in Rain Light Rain
1:53 AM 44.1 °F 42.5 °F 41.0 °F 89% 29.72 in 8.0 mi South 3.5 mph - 0.03 in Rain Light Rain
2:40 AM 44.6 °F 39.2 °F 39.2 °F 81% 29.81 in 9.0 mi South 10.4 mph - 0.02 in Rain Light Rain
2:53 AM 44.1 °F 36.5 °F 37.9 °F 79% 29.70 in 8.0 mi South 17.3 mph 23.0 mph 0.02 in Rain Light Rain
3:53 AM 43.0 °F 36.0 °F 37.0 °F 80% 29.68 in 6.0 mi South 13.8 mph 25.3 mph 0.04 in Rain Light Rain
4:12 AM 42.8 °F 38.6 °F 37.4 °F 81% 29.80 in 4.0 mi South 6.9 mph - 0.02 in Rain Rain
4:42 AM 41.0 °F 33.9 °F 37.4 °F 87% 29.79 in 5.0 mi South 12.7 mph - 0.07 in Rain Light Rain
4:53 AM 41.0 °F 34.3 °F 37.0 °F 86% 29.70 in 6.0 mi South 11.5 mph - 0.08 in Rain Light Rain
5:07 AM 39.2 °F 32.0 °F 37.4 °F 93% 29.79 in 4.0 mi SSE 11.5 mph - 0.03 in Rain Rain
5:23 AM 41.0 °F 33.9 °F 35.6 °F 81% 29.78 in 6.0 mi South 12.7 mph - 0.04 in Rain Light Rain
5:53 AM 39.9 °F 35.8 °F 37.0 °F 89% 29.68 in 5.0 mi SSE 5.8 mph - 0.06 in Rain Light Rain
6:42 AM 41.0 °F 38.0 °F 37.4 °F 87% 29.78 in 3.0 mi Variable 4.6 mph - 0.02 in Rain Light Rain
6:53 AM 41.0 °F 33.9 °F 37.0 °F 86% 29.70 in 5.0 mi South 12.7 mph 18.4 mph 0.02 in Rain Light Rain
7:00 AM 41.0 °F 35.2 °F 37.4 °F 87% 29.79 in 6.0 mi South 9.2 mph - 0.00 in Rain Light Rain
7:53 AM 39.9 °F 35.8 °F 36.0 °F 86% 29.70 in 6.0 mi Variable 5.8 mph - 0.02 in Rain Light Rain
8:11 AM 41.0 °F 33.9 °F 35.6 °F 81% 29.77 in 8.0 mi South 12.7 mph 24.2 mph 0.00 in Rain Light Rain
8:33 AM 41.0 °F 34.7 °F 35.6 °F 81% 29.77 in 10.0 mi South 10.4 mph 19.6 mph 0.00 in Rain Light Rain
8:53 AM 42.1 °F 35.7 °F 35.1 °F 76% 29.69 in 10.0 mi SSW 11.5 mph 21.9 mph 0.00 in Rain Light Rain
9:37 AM 42.8 °F 34.5 °F 35.6 °F 76% 29.76 in 10.0 mi South 18.4 mph 36.8 mph 0.00 in Rain Light Rain
9:53 AM 43.0 °F 34.5 °F 36.0 °F 76% 29.67 in 8.0 mi South 19.6 mph 32.2 mph 0.00 in Rain Light Rain
10:40 AM 42.8 °F 34.5 °F 35.6 °F 76% 29.75 in 4.0 mi SSW 18.4 mph 31.1 mph 0.00 in Rain Light Rain
10:53 AM 43.0 °F 35.4 °F 36.0 °F 76% 29.68 in 6.0 mi SSW 16.1 mph 33.4 mph 0.00 in Rain Light Rain
11:53 AM 41.0 °F 32.2 °F 35.1 °F 79% 29.71 in 7.0 mi SSW 18.4 mph 33.4 mph 0.01 in Rain Light Rain
12:53 PM 39.9 °F 30.5 °F 34.0 °F 79% 29.73 in 4.0 mi SSW 19.6 mph 42.6 mph 0.00 in Rain Light Rain
1:46 PM 39.2 °F 29.6 °F 33.8 °F 81% 29.84 in 7.0 mi SSW 19.6 mph 36.8 mph 0.02 in Rain Light Rain
1:53 PM 39.0 °F 29.3 °F 32.0 °F 76% 29.78 in 4.0 mi SSW 19.6 mph 34.5 mph 0.02 in Rain Light Rain
1:59 PM 37.4 °F 27.5 °F 32.0 °F 81% 29.86 in 1.8 mi SSW 18.4 mph 34.5 mph 0.00 in Snow Light Snow
2:11 PM 39.2 °F 30.2 °F 33.8 °F 81% 29.85 in 3.0 mi SSW 17.3 mph 38.0 mph 0.01 in   Unknown
2:20 PM 39.2 °F 29.3 °F 33.8 °F 81% 29.85 in 6.0 mi SSW 20.7 mph 32.2 mph 0.01 in Rain Light Rain
2:25 PM 37.4 °F 26.9 °F 32.0 °F 81% 29.84 in 2.5 mi SSW 20.7 mph 42.6 mph 0.01 in Snow Light Snow
2:34 PM 37.4 °F 26.4 °F 32.0 °F 81% 29.84 in 1.5 mi SSW 23.0 mph 42.6 mph 0.01 in Snow Light Snow
2:36 PM 37.4 °F 25.9 °F 32.0 °F 81% 29.84 in 2.0 mi SSW 25.3 mph 44.9 mph 0.01 in Snow Light Snow
2:41 PM 39.2 °F 27.6 °F 30.2 °F 70% 29.84 in 6.0 mi SSW 28.8 mph 51.8 mph 0.01 in   Unknown
2:48 PM 41.0 °F 29.7 °F 30.2 °F 65% 29.83 in 9.0 mi South 31.1 mph 51.8 mph 0.01 in   Scattered Clouds
2:53 PM 41.0 °F 30.9 °F 28.9 °F 62% 29.76 in 10.0 mi SSW 24.2 mph 43.7 mph 0.01 in   Partly Cloudy
3:53 PM 39.9 °F 30.8 °F 28.0 °F 63% 29.82 in 7.0 mi SSW 18.4 mph 36.8 mph 0.00 in Rain Light Rain
4:53 PM 39.9 °F 30.8 °F 27.0 °F 60% 29.93 in 9.0 mi SW 18.4 mph 29.9 mph 0.00 in   Overcast
5:53 PM 37.9 °F 30.0 °F 23.0 °F 55% 29.97 in 10.0 mi SSW 12.7 mph 21.9 mph 0.00 in   Overcast
6:53 PM 37.0 °F 29.3 °F 25.0 °F 62% 30.00 in 10.0 mi SSW 11.5 mph 21.9 mph N/A   Overcast
7:53 PM 36.0 °F 29.6 °F 24.1 °F 62% 30.02 in 10.0 mi SSW 8.1 mph - N/A   Scattered Clouds
8:53 PM 35.1 °F 29.3 °F 24.1 °F 64% 30.05 in 10.0 mi SW 6.9 mph - N/A   Partly Cloudy
9:53 PM 35.1 °F 27.9 °F 24.1 °F 64% 30.07 in 10.0 mi South 9.2 mph - N/A   Scattered Clouds
10:53 PM 30.9 °F - 26.1 °F 82% 30.09 in 10.0 mi Calm Calm - N/A   Clear
11:53 PM 30.0 °F 25.2 °F 26.1 °F 85% 30.11 in 10.0 mi SSW 4.6 mph - N/A   Clear